Beatrice, NE

12:00 PM CDT on September 30, 2016 (GMT -0500)
Beatrice Municipal

Weather History for KBIE - May, 2013

Change the Weather History Date:

Sunday, May 19, 2013

  Actual Average Record
Temperature  
Mean Temperature 70 °F -  
Max Temperature 80 °F 77 °F 95 °F (2006)
Min Temperature 60 °F 53 °F 36 °F (1968)
Cooling Degree Days 5    
Growing Degree Days 20 (Base 50)    
Moisture  
Dew Point 62 °F    
Average Humidity 82    
Maximum Humidity 100    
Minimum Humidity 52    
Precipitation  
Precipitation 0.37 in - - ()
Sea Level Pressure  
Sea Level Pressure 29.63 in    
Wind  
Wind Speed 9 mph (SSE)    
Max Wind Speed 18 mph    
Max Gust Speed 28 mph    
Visibility 10 miles    
Events Rain , Thunderstorm    
Averages and records for this station are not official NWS values.
T = Trace of Precipitation, MM = Missing Value Source: NWS Daily Summary

Daily Weather History Graph

Daily Weather History Graph

Search for Another Location

Airport or City:

Trip Planner

Search our weather history database for the weather conditions in past years. The results will help you decide how hot, cold, wet, or windy it might be!

Date:

Astronomy

May. 19, 2013 Rise Set
Actual Time 6:07 AM CDT 8:40 PM CDT
Civil Twilight 5:36 AM CDT 9:11 PM CDT
Nautical Twilight 4:57 AM CDT 9:50 PM CDT
Astronomical Twilight 4:13 AM CDT 10:34 PM CDT
Moon 2:45 PM CDT (5/19) 2:32 AM CDT (5/19)
Length of Visible Light 15h 35m
Length of Day
14h 33m
Waxing Gibbous, 65% of the Moon is Illuminated
May 19
Waxing Gibbous
May 24
Full
May 31
Last Quarter
Jun 8
New
Jun 16
First Quarter

Hourly Weather History & Observations

Time (CDT) Temp. Heat Index Dew Point Humidity Pressure Visibility Wind Dir Wind Speed Gust Speed Precip Events Conditions
12:15 AM 62.2 °F - 61.7 °F 98% 29.83 in 5.0 mi SW 17.3 mph 24.2 mph 0.04 in Rain , Thunderstorm Thunderstorms and Rain
12:35 AM 63.0 °F - 61.7 °F 96% 29.83 in 7.0 mi SW 9.2 mph 19.6 mph 0.10 in Rain , Thunderstorm Thunderstorms and Rain
12:55 AM 63.5 °F - 62.6 °F 97% 29.82 in 5.0 mi SSW 8.1 mph - 0.17 in Rain , Thunderstorm Heavy Thunderstorms and Rain
1:15 AM 63.5 °F - 62.4 °F 96% 29.76 in 10.0 mi East 6.9 mph - 0.02 in Rain , Thunderstorm Light Thunderstorms and Rain
1:35 AM 63.5 °F - 62.4 °F 96% 29.74 in 10.0 mi SSE 6.9 mph - 0.03 in Rain Light Rain
1:55 AM 62.6 °F - 62.6 °F 100% 29.75 in 10.0 mi SSW 9.2 mph - 0.03 in   Scattered Clouds
2:15 AM 61.7 °F - 61.7 °F 100% 29.72 in 10.0 mi Calm Calm - N/A   Clear
2:35 AM 61.3 °F - 61.3 °F 100% 29.65 in 10.0 mi North 10.4 mph - N/A   Clear
2:55 AM 62.1 °F - 62.1 °F 100% 29.65 in 10.0 mi East 3.5 mph - N/A   Clear
3:15 AM 61.9 °F - 61.9 °F 100% 29.67 in 10.0 mi SE 8.1 mph - N/A   Clear
3:35 AM 62.1 °F - 62.1 °F 100% 29.69 in 10.0 mi SSE 13.8 mph 17.3 mph N/A   Clear
3:55 AM 62.6 °F - 62.6 °F 100% 29.70 in 10.0 mi SE 8.1 mph - N/A   Clear
4:15 AM 63.1 °F - 63.1 °F 100% 29.70 in 10.0 mi SE 11.5 mph - N/A   Clear
4:35 AM 64.4 °F - 62.2 °F 93% 29.71 in 10.0 mi SE 8.1 mph - N/A   Clear
4:55 AM 64.4 °F - 61.5 °F 90% 29.69 in 10.0 mi SE 9.2 mph - N/A   Clear
5:15 AM 63.7 °F - 61.5 °F 93% 29.68 in 10.0 mi SE 6.9 mph - N/A   Clear
5:35 AM 63.9 °F - 61.7 °F 93% 29.66 in 10.0 mi ESE 4.6 mph - N/A   Scattered Clouds
5:55 AM 63.1 °F - 61.3 °F 94% 29.64 in 10.0 mi East 3.5 mph - N/A   Scattered Clouds
6:15 AM 63.5 °F - 61.3 °F 93% 29.64 in 10.0 mi Calm Calm - N/A   Clear
6:35 AM 63.3 °F - 61.7 °F 94% 29.66 in 10.0 mi SE 8.1 mph - N/A   Clear
6:55 AM 64.4 °F - 62.6 °F 94% 29.67 in 10.0 mi ESE 5.8 mph - N/A   Scattered Clouds
7:15 AM 64.9 °F - 61.7 °F 89% 29.68 in 10.0 mi SE 6.9 mph - N/A   Clear
7:35 AM 65.3 °F - 62.1 °F 89% 29.68 in 10.0 mi SE 9.2 mph - N/A   Clear
7:55 AM 64.9 °F - 62.6 °F 92% 29.65 in 10.0 mi SE 9.2 mph - N/A   Clear
8:15 AM 65.3 °F - 62.8 °F 92% 29.64 in 10.0 mi ESE 5.8 mph - N/A   Mostly Cloudy
8:35 AM 65.7 °F - 62.8 °F 90% 29.64 in 10.0 mi Calm Calm - N/A   Mostly Cloudy
8:55 AM 66.2 °F - 63.5 °F 91% 29.62 in 10.0 mi ESE 4.6 mph - N/A   Scattered Clouds
9:15 AM 67.1 °F - 64.0 °F 90% 29.63 in 10.0 mi Calm Calm - N/A   Clear
9:35 AM 68.0 °F - 64.4 °F 88% 29.63 in 10.0 mi SE 6.9 mph - N/A   Clear
9:55 AM 69.3 °F - 64.0 °F 83% 29.63 in 10.0 mi SSE 8.1 mph - N/A   Clear
10:15 AM 70.2 °F - 64.6 °F 82% 29.64 in 10.0 mi South 9.2 mph - N/A   Clear
10:35 AM 70.7 °F - 64.6 °F 81% 29.64 in 10.0 mi SSE 5.8 mph - N/A   Clear
10:55 AM 72.3 °F - 64.8 °F 77% 29.65 in 10.0 mi South 9.2 mph - N/A   Clear
11:15 AM 73.4 °F - 64.8 °F 74% 29.65 in 10.0 mi SSE 5.8 mph - N/A   Clear
11:35 AM 74.3 °F - 65.5 °F 74% 29.64 in 10.0 mi SSE 10.4 mph - N/A   Clear
11:55 AM 75.9 °F - 66.2 °F 72% 29.64 in 10.0 mi South 8.1 mph - N/A   Scattered Clouds
12:15 PM 76.5 °F - 66.7 °F 72% 29.65 in 10.0 mi SSW 11.5 mph - N/A   Scattered Clouds
12:35 PM 77.2 °F - 63.9 °F 63% 29.64 in 10.0 mi South 8.1 mph - N/A   Clear
12:55 PM 77.9 °F - 64.2 °F 63% 29.63 in 10.0 mi South 6.9 mph - N/A   Scattered Clouds
1:15 PM 80.4 °F 82.0 °F 64.0 °F 57% 29.62 in 10.0 mi SSW 10.4 mph 16.1 mph N/A   Scattered Clouds
1:35 PM 78.4 °F - 60.6 °F 54% 29.62 in 10.0 mi SSW 3.5 mph - N/A   Mostly Cloudy
1:55 PM 75.2 °F - 66.2 °F 73% 29.63 in 7.0 mi SSW 8.1 mph - N/A Rain , Thunderstorm Light Thunderstorms and Rain
2:15 PM 73.9 °F - 68.0 °F 82% 29.61 in 10.0 mi East 3.5 mph - 0.01 in Rain , Thunderstorm Light Thunderstorms and Rain
2:35 PM 75.7 °F - 70.0 °F 82% 29.61 in 10.0 mi South 6.9 mph - 0.01 in Thunderstorm Thunderstorm
2:55 PM 78.8 °F - 64.4 °F 61% 29.62 in 10.0 mi South 8.1 mph - N/A   Scattered Clouds
3:15 PM 76.5 °F - 61.5 °F 60% 29.63 in 10.0 mi South 11.5 mph - N/A Thunderstorm Overcast
3:35 PM 76.3 °F - 61.0 °F 59% 29.62 in 10.0 mi South 6.9 mph - N/A   Overcast
3:55 PM 78.3 °F - 61.2 °F 56% 29.61 in 10.0 mi South 8.1 mph - N/A Thunderstorm Scattered Clouds
4:15 PM 78.3 °F - 59.5 °F 52% 29.56 in 10.0 mi Calm Calm - N/A Thunderstorm Clear
4:35 PM 78.3 °F - 61.0 °F 55% 29.56 in 10.0 mi SW 8.1 mph - N/A   Clear
4:55 PM 76.8 °F - 60.6 °F 57% 29.56 in 10.0 mi South 8.1 mph - N/A   Scattered Clouds
5:15 PM 77.2 °F - 61.7 °F 59% 29.49 in 10.0 mi East 8.1 mph - N/A Rain , Thunderstorm Light Thunderstorms and Rain
5:35 PM 75.6 °F - 62.8 °F 64% 29.51 in 10.0 mi East 11.5 mph - N/A Thunderstorm Thunderstorm
5:55 PM 73.9 °F - 62.8 °F 68% 29.52 in 10.0 mi ESE 6.9 mph - N/A Thunderstorm Scattered Clouds
6:15 PM 73.4 °F - 64.2 °F 73% 29.55 in 10.0 mi SE 17.3 mph 24.2 mph N/A   Scattered Clouds
6:35 PM 70.9 °F - 64.2 °F 79% 29.56 in 10.0 mi SSE 13.8 mph 17.3 mph N/A   Mostly Cloudy
6:55 PM 71.6 °F - 57.2 °F 60% 29.54 in 10.0 mi SE 13.8 mph 19.6 mph N/A   Overcast
7:15 PM 70.3 °F - 53.6 °F 55% 29.51 in 10.0 mi SE 18.4 mph 24.2 mph N/A   Overcast
7:35 PM 68.5 °F - 54.5 °F 61% 29.49 in 10.0 mi SE 16.1 mph 23.0 mph N/A   Light Drizzle
7:55 PM 67.8 °F - 55.4 °F 64% 29.51 in 10.0 mi SE 15.0 mph 21.9 mph N/A   Clear
8:15 PM 65.7 °F - 58.1 °F 77% 29.51 in 10.0 mi South 9.2 mph - N/A   Clear
8:35 PM 64.9 °F - 59.2 °F 82% 29.55 in 10.0 mi SSW 13.8 mph - N/A   Clear
8:55 PM 65.3 °F - 60.1 °F 83% 29.57 in 10.0 mi South 17.3 mph 24.2 mph N/A   Clear
9:15 PM 65.3 °F - 56.5 °F 73% 29.62 in 10.0 mi West 18.4 mph 27.6 mph N/A Thunderstorm Mostly Cloudy
9:35 PM 60.6 °F - 59.0 °F 94% 29.63 in 4.0 mi SW 12.7 mph 27.6 mph 0.11 in Rain , Thunderstorm Thunderstorms and Rain
9:55 PM 61.3 °F - 59.4 °F 93% 29.61 in 7.0 mi SSE 4.6 mph - 0.14 in Rain Rain
10:15 PM 61.7 °F - 59.9 °F 94% 29.58 in 10.0 mi SE 8.1 mph - 0.01 in   Mostly Cloudy
10:35 PM 61.7 °F - 60.8 °F 97% 29.61 in 10.0 mi SSW 5.8 mph - 0.01 in   Scattered Clouds
10:55 PM 60.8 °F - 60.8 °F 100% 29.61 in 10.0 mi SSW 8.1 mph - N/A   Clear
11:15 PM 61.5 °F - 60.8 °F 97% 29.59 in 10.0 mi South 5.8 mph - N/A   Clear
11:35 PM 61.7 °F - 60.4 °F 96% 29.60 in 10.0 mi SSW 8.1 mph - N/A   Clear
11:55 PM 60.8 °F - 59.0 °F 94% 29.58 in 10.0 mi SW 9.2 mph - 0.01 in   Clear